This demonstration page uses our WeatherBlox Daily Observations layout. Learn more.

Left ArrowRight Arrow

Hourly Observations for December 30, 2021

Temp ( °F °C ) Dew Point ( °F °C ) Humidity (%) Winds ( mph kmh ) Pressure ( in mb ) Visibility ( mi km ) Precip ( " mm )
12:51 am 00:51 Clear 32 0 32 0 100 100 ESE 3 6 29.97 1015 10 16 0.00 0.00
1:51 am 01:51 Clear 34 1.1 34 1.1 100 100 ESE 5 7 29.97 1015 10 16 0.00 0.00
2:51 am 02:51 Clear 31 -0.6 31 -0.6 100 100 Calm 29.98 1015 10 16 0.00 0.00
3:51 am 03:51 Clear 31 -0.6 31 -0.6 100 100 SE 6 9 29.97 1015 10 16 0.00 0.00
4:51 am 04:51 Clear 31 -0.6 31 -0.6 100 100 SE 6 9 29.98 1015 10 16 0.00 0.00
5:51 am 05:51 Clear 31 -0.6 31 -0.6 100 100 E 3 6 29.99 1016 10 16 0.00 0.00
6:51 am 06:51 Clear 28 -2.2 28 -2.2 100 100 SE 6 9 30.01 1016 10 16 0.00 0.00
7:51 am 07:51 Sunny 30 -1.1 30 -1.1 100 100 ESE 3 6 30.02 1017 10 16 0.00 0.00
8:51 am 08:51 Sunny 34 1.1 34 1.1 100 100 SSE 9 15 30.03 1017 10 16 0.00 0.00
9:51 am 09:51 Sunny 40 4.4 37 2.8 89 89 SE 8 13 30.03 1017 10 16 0.00 0.00
10:51 am 10:51 Sunny 43 6.1 38 3.3 82 82 S 7 11 30.02 1017 10 16 0.00 0.00
11:51 am 11:51 Sunny 44 6.7 38 3.3 79 79 Calm 30.00 1016 10 16 0.00 0.00
12:51 pm 12:51 Sunny 47 8.3 38 3.3 71 71 Calm 29.95 1014 10 16 0.00 0.00
1:51 pm 13:51 Sunny 50 10 38 3.3 63 63 W 3 6 29.93 1014 10 16 0.00 0.00
2:51 pm 14:51 Sunny 52 11.1 37 2.8 57 57 VRB 5 7 29.91 1013 10 16 0.00 0.00
3:51 pm 15:51 Sunny 51 10.6 37 2.8 59 59 Calm 29.92 1013 10 16 0.00 0.00
4:51 pm 16:51 Mostly Sunny 50 10 37 2.8 61 61 S 3 6 29.91 1013 10 16 0.00 0.00
5:51 pm 17:51 Cloudy 49 9.4 38 3.3 66 66 Calm 29.91 1013 10 16 0.00 0.00
6:51 pm 18:51 Cloudy 48 8.9 44 6.7 86 86 Calm 29.93 1013 10 16 0.00 0.00
7:32 pm 19:32 Cloudy 47 8.3 44 6.7 90 90 Calm 29.93 1014 10 16 0.00 0.00
7:41 pm 19:41 Cloudy 47 8.3 43 6.1 86 86 ESE 5 7 29.93 1014 10 16 0.00 0.00
7:51 pm 19:51 Cloudy 48 8.9 42 5.6 80 80 ESE 6 9 29.93 1013 10 16 0.00 0.00
8:51 pm 20:51 Cloudy 46 7.8 43 6.1 89 89 Calm 29.91 1013 10 16 0.00 0.00
9:51 pm 21:51 Mostly Cloudy 44 6.7 43 6.1 96 96 Calm 29.90 1013 10 16 0.00 0.00
10:51 pm 22:51 Clear 41 5 41 5 100 100 NE 5 7 29.91 1013 10 16 0.00 0.00
11:51 pm 23:51 Mostly Cloudy 44 6.7 42 5.6 93 93 E 7 11 29.88 1012 10 16 0.00 0.00

Powered by AerisWeather